[[{"header":{"parameterUnit":"m.s-1","parameterCategory":1,"la1":30.2991,"la2":30.254,"lo1":-89.0895,"lo2":-89.0444,"dy":0.0017,"dx":0.0017,"nx":28,"ny":28,"refTime":"2023-08-25T03:00:00:Z","depth":0,"parameterNumber":2,"parameterNumberName":"U-component_of_WINDS"},"data":[0,0,0,0,0,0,0,0,0,0,0,0,0,0,0,0,0,0,0,0,0,0,0,0,0,0,0,0,0,0,0,0,0,0,0,0,0,0,0,0,0,0,0,0,0,0,0,0,0,0,0,0,0,0,0,0,0,0,1.6189,1.6191,0,1.6404,1.6406,1.6409,1.6424,1.6422,1.6419,1.6417,1.6641,1.6649,1.6657,0,0,0,0,0,0,0,0,0,0,0,0,0,1.5793,1.58,1.6189,1.6191,1.6194,1.6404,1.6407,1.6409,1.6425,1.6422,1.6419,1.6416,1.6638,1.6648,1.6658,0,0,0,0,0,0,0,0,0,0,0,0,0,1.5982,1.5802,1.6188,1.6227,1.6232,1.6403,1.6407,1.641,1.6425,1.6422,1.6418,1.6415,1.6635,1.6647,1.6659,1.6807,0,0,1.6696,1.6702,0,0,0,0,0,0,0,0,1.5971,1.5997,1.6218,1.6224,1.6231,1.6383,1.6349,1.6543,1.6426,1.6352,1.6417,1.6413,1.6558,1.6577,1.6625,1.6817,1.6827,1.6698,1.6705,1.671,1.6714,0,0,0,0,0,0,0,1.5958,1.5988,1.6274,1.6222,1.6229,1.6234,1.6257,1.6386,1.6473,1.6358,1.636,1.6385,1.6561,1.6613,1.663,1.683,1.6697,1.6708,1.6716,1.672,1.7153,1.7157,0,0,0,0,0,0,1.5937,1.5976,1.6267,1.628,1.609,1.6244,1.627,1.6338,1.6471,1.6488,1.6388,1.6385,1.6594,1.6616,1.6638,1.6819,1.671,1.6722,1.6729,1.7149,1.7154,1.7158,0,0,0,0,0,0,1.5929,1.5963,1.6258,1.6129,1.6167,1.6255,1.6332,1.6344,1.6396,1.6494,1.651,1.6425,1.6592,1.6621,1.6764,1.6827,1.6727,1.6738,1.7144,1.715,1.7156,1.7181,0,0,0,0,0,0,1.5917,1.596,1.6017,1.613,1.6174,1.638,1.6335,1.6351,1.6417,1.6415,1.6533,1.6549,1.6591,1.6746,1.6776,1.6842,1.6748,1.7139,1.7147,1.7154,1.7175,1.7187,1.7198,0,0,0,0,0,1.5903,1.6016,1.6019,1.6054,1.6246,1.6383,1.6409,1.6454,1.6422,1.648,1.6542,1.6545,1.6815,1.676,1.6795,1.6865,1.7135,1.7145,1.7154,1.717,1.7185,1.7198,0,0,0,0,0,0,1.5909,1.6032,1.6037,1.6189,1.6276,1.6386,1.646,1.6469,1.6567,1.6561,1.6615,1.6642,1.6783,1.6839,1.6775,1.7014,1.6972,1.6988,1.6972,1.6987,1.6998,1.6981,1.6758,0,0,0,0,0,1.5928,1.6028,1.6131,1.6255,1.6298,1.6372,1.6433,1.6461,1.6553,1.659,1.6663,1.6753,1.6858,1.6926,1.7028,1.7184,1.7209,1.7249,1.726,1.7269,1.7282,1.7367,1.7386,1.7189,1.7189,1.7188,0,0,1.5968,1.6047,1.6108,1.6259,1.6329,1.6432,1.6402,1.6513,1.659,1.6607,1.6746,1.6803,1.6907,1.7056,1.7126,1.7107,1.7343,1.7281,1.7287,1.7296,1.7379,1.7397,1.7414,1.7195,1.7194,1.7193,0,0,1.6093,1.6164,1.6275,1.6346,1.6452,1.65,1.6526,1.6635,1.6673,1.6813,1.6827,1.692,1.7101,1.7173,1.7234,1.7387,1.7392,1.7419,1.7478,1.756,1.7575,1.7589,1.7642,1.766,1.7432,1.7432,1.7432,0,1.613,1.6285,1.6331,1.6441,1.6507,1.6526,1.6638,1.6705,1.684,1.6885,1.6862,1.7087,1.7159,1.7325,1.7361,1.7411,1.7442,1.7405,1.7569,1.7584,1.7597,1.7648,1.7668,1.7434,1.7434,1.7434,1.7434,0,1.6324,1.6432,1.6509,1.6636,1.6711,1.6822,1.6885,1.6955,1.6976,1.7027,1.7169,1.7255,1.7374,1.7416,1.7439,1.7585,1.757,1.7558,1.7516,1.7618,1.7666,1.7686,1.7438,1.7437,1.7436,1.7436,0,0,1.6458,1.6609,1.6637,1.6694,1.6812,1.6897,1.7009,1.7124,1.7182,1.7275,1.7369,1.7521,1.751,1.7579,1.761,1.7682,1.7795,1.7661,1.7664,1.7681,1.796,1.7967,1.7989,1.78,1.7804,1.7807,1.795,0,1.6595,1.6793,1.6838,1.7008,1.7107,1.7127,1.7224,1.7308,1.7358,1.745,1.7506,1.7612,1.759,1.7631,1.7704,1.7766,1.7851,1.7757,1.7888,1.7892,1.7859,1.8014,1.8023,1.8153,1.797,1.7973,1.7976,0,1.6781,1.6876,1.7056,1.716,1.7203,1.729,1.7398,1.7486,1.7581,1.7613,1.7689,1.7713,1.783,1.7783,1.7945,1.7879,1.7936,1.7974,1.7981,1.7993,1.7939,1.8029,1.8196,1.8215,1.8006,1.8004,1.8002,0,1.6858,1.7031,1.7161,1.721,1.7335,1.7395,1.745,1.7542,1.7608,1.7703,1.7747,1.7855,1.7914,1.7998,1.805,1.8011,1.8207,1.8165,1.8236,1.8235,1.8275,1.8271,1.8451,1.8315,1.8315,1.8314,1.8314,0,1.7005,1.7114,1.7196,1.7276,1.7398,1.7449,1.7569,1.7625,1.7706,1.7796,1.7821,1.7906,1.7971,1.8065,1.8107,1.8233,1.8261,1.8289,1.8298,1.8285,1.8281,1.8322,1.8313,1.8319,1.8318,1.8317,1.8316,0,1.7111,1.7171,1.7313,1.742,1.7449,1.7534,1.7626,1.7704,1.7755,1.7869,1.7899,1.7979,1.8091,1.8151,1.8292,1.832,1.8461,1.8467,1.8428,1.8432,1.8498,1.849,1.8709,1.874,1.8585,1.8586,1.8587,0,1.7199,1.7283,1.7399,1.7461,1.7516,1.7616,1.7684,1.7737,1.7806,1.792,1.7985,1.8097,1.819,1.8368,1.8439,1.8546,1.8553,1.8623,1.8569,1.8553,1.8552,1.8545,1.8553,1.8631,1.8632,1.8634,1.8635,0,1.735,1.7375,1.747,1.7576,1.7656,1.7742,1.7827,1.7877,1.7945,1.8021,1.8135,1.8207,1.8349,1.8461,1.8573,1.8631,1.8644,1.8651,1.8673,1.8659,1.8632,1.8646,1.8451,1.8645,1.8644,1.8643,1.8643,1.8642,1.7449,1.7523,1.7616,1.7721,1.7791,1.787,1.7948,1.8008,1.8103,1.8222,1.8249,1.8369,1.8461,1.8614,1.8674,1.8769,1.8755,1.8787,1.8795,1.8802,1.8803,1.8619,1.879,1.879,1.879,1.879,1.8789,0,1.7598,1.7658,1.7755,1.7873,1.7955,1.796,1.8055,1.8124,1.8228,1.8314,1.8404,1.8534,1.8642,1.8721,1.8832,1.8892,1.8901,1.8919,1.8914,1.8927,1.881,1.8779,1.891,1.891,1.891,1.891,1.891,1.891,1.7685,1.7811,1.7848,1.8009,1.8069,1.8185,1.8239,1.8312,1.838,1.8523,1.8613,1.8663,1.8746,1.8863,1.8962,1.8982,1.9021,1.9038,1.9059,1.8948,1.8935,1.8923,1.8894,1.9047,1.9047,1.9168,1.9169,1.917]},{"header":{"parameterUnit":"m.s-1","parameterCategory":1,"la1":30.2991,"la2":30.254,"lo1":-89.0895,"lo2":-89.0444,"dy":0.0017,"dx":0.0017,"nx":28,"ny":28,"refTime":"2023-08-25T03:00:00:Z","depth":0,"parameterNumber":3,"parameterNumberName":"V-component_of_WINDS"},"data":[0,0,0,0,0,0,0,0,0,0,0,0,0,0,0,0,0,0,0,0,0,0,0,0,0,0,0,0,0,0,0,0,0,0,0,0,0,0,0,0,0,0,0,0,0,0,0,0,0,0,0,0,0,0,0,0,0,0,2.3284,2.3284,0,2.3297,2.3297,2.3297,2.3228,2.3226,2.3224,2.3222,2.3239,2.3241,2.3243,0,0,0,0,0,0,0,0,0,0,0,0,0,2.3202,2.3204,2.3284,2.3284,2.3284,2.3297,2.3297,2.3297,2.3228,2.3226,2.3223,2.3221,2.3238,2.3241,2.3243,0,0,0,0,0,0,0,0,0,0,0,0,0,2.3229,2.3204,2.3284,2.3251,2.3249,2.3297,2.3297,2.3297,2.3229,2.3226,2.3223,2.322,2.3237,2.324,2.3244,2.3325,0,0,2.3254,2.3256,0,0,0,0,0,0,0,0,2.3227,2.3232,2.3256,2.3254,2.3251,2.3258,2.3274,2.3307,2.3229,2.3236,2.3222,2.3218,2.3248,2.325,2.3259,2.3326,2.3327,2.3255,2.3257,2.3258,2.3259,0,0,0,0,0,0,0,2.3225,2.3231,2.3289,2.3256,2.3253,2.3237,2.3237,2.328,2.3259,2.3236,2.3231,2.3233,2.3246,2.3256,2.3259,2.3327,2.3255,2.3258,2.326,2.3261,2.3457,2.346,0,0,0,0,0,0,2.3227,2.323,2.3289,2.329,2.3231,2.3241,2.3241,2.3258,2.3258,2.3255,2.3235,2.3229,2.3252,2.3255,2.3259,2.3351,2.3258,2.3262,2.3264,2.3454,2.3458,2.3461,0,0,0,0,0,0,2.3226,2.3233,2.3288,2.3258,2.3264,2.3245,2.3265,2.326,2.327,2.3258,2.3254,2.325,2.3249,2.3255,2.3308,2.3351,2.3263,2.3266,2.345,2.3455,2.346,2.3538,0,0,0,0,0,0,2.3224,2.3233,2.3264,2.3259,2.3266,2.3337,2.3268,2.3263,2.3276,2.3269,2.327,2.3268,2.3247,2.3303,2.3312,2.3354,2.3269,2.3446,2.3453,2.3458,2.3532,2.3545,2.3556,0,0,0,0,0,2.3221,2.3287,2.3266,2.3273,2.3303,2.3339,2.3343,2.3317,2.328,2.331,2.3302,2.3268,2.3346,2.3309,2.3318,2.3363,2.3444,2.3451,2.3458,2.3526,2.3542,2.3556,0,0,0,0,0,0,2.3299,2.3286,2.3262,2.3328,2.3335,2.3328,2.3365,2.3336,2.3355,2.3347,2.3315,2.3316,2.3375,2.3375,2.3335,2.3439,2.3388,2.3397,2.3437,2.3452,2.3465,2.3462,2.3272,0,0,0,0,0,2.3324,2.3353,2.3341,2.34,2.3405,2.3385,2.3399,2.3379,2.3385,2.3388,2.3383,2.3392,2.3417,2.3435,2.3459,2.3532,2.353,2.3566,2.3579,2.3589,2.3597,2.3632,2.3647,2.3484,2.3484,2.3484,0,0,2.3376,2.3372,2.3393,2.3416,2.3419,2.3449,2.3388,2.3424,2.3446,2.3394,2.3443,2.344,2.3447,2.351,2.3537,2.3511,2.3641,2.3598,2.3606,2.3608,2.3641,2.3656,2.367,2.3489,2.3488,2.3488,0,0,2.3485,2.3486,2.3534,2.3537,2.3541,2.3527,2.3539,2.3535,2.353,2.3579,2.3539,2.3566,2.3612,2.3617,2.3626,2.3735,2.3703,2.3744,2.3808,2.3842,2.3855,2.3866,2.3902,2.3915,2.3752,2.3752,2.3752,0,2.3549,2.3593,2.3563,2.3601,2.3611,2.3563,2.361,2.3616,2.3628,2.3637,2.3607,2.3661,2.3663,2.3725,2.3751,2.3761,2.3772,2.3742,2.3855,2.3866,2.3876,2.391,2.3924,2.3757,2.3756,2.3756,2.3755,0,2.367,2.3701,2.374,2.3749,2.3764,2.3808,2.3784,2.3803,2.378,2.3769,2.3818,2.3818,2.3839,2.3852,2.3832,2.391,2.3893,2.3861,2.3808,2.3897,2.3928,2.3941,2.3763,2.3762,2.376,2.3759,0,0,2.3829,2.382,2.3834,2.3836,2.3836,2.386,2.39,2.3919,2.3934,2.3945,2.3976,2.4015,2.3983,2.3993,2.3973,2.4004,2.4086,2.3967,2.3966,2.3986,2.4168,2.4191,2.4207,2.4066,2.4068,2.407,2.4167,0,2.3933,2.3999,2.3972,2.404,2.4067,2.4021,2.4056,2.4059,2.405,2.4072,2.4061,2.4088,2.4046,2.4051,2.408,2.407,2.4122,2.4063,2.4093,2.4095,2.409,2.4223,2.4248,2.434,2.4179,2.4181,2.4183,0,2.4063,2.4075,2.4145,2.4137,2.4148,2.4179,2.4192,2.4214,2.4217,2.4207,2.4217,2.419,2.4228,2.4177,2.4228,2.4189,2.42,2.4197,2.42,2.42,2.4142,2.4224,2.4368,2.4381,2.4202,2.42,2.4199,0,2.4168,2.4202,2.4247,2.4252,2.4244,2.4267,2.4265,2.4265,2.4276,2.4289,2.4295,2.4313,2.4322,2.4336,2.4314,2.4279,2.4367,2.4315,2.4359,2.436,2.4378,2.4377,2.4523,2.439,2.439,2.439,2.439,0,2.4285,2.4329,2.4294,2.4322,2.4369,2.4338,2.4386,2.4379,2.4379,2.4404,2.4367,2.4392,2.4362,2.4384,2.4367,2.441,2.4416,2.4408,2.4403,2.441,2.4411,2.4415,2.4407,2.4393,2.4393,2.4392,2.4391,0,2.441,2.4388,2.4433,2.4422,2.442,2.4455,2.4445,2.447,2.4457,2.449,2.4496,2.4476,2.4499,2.4478,2.4502,2.449,2.4547,2.4534,2.4545,2.454,2.4585,2.458,2.4737,2.4755,2.4613,2.4615,2.4616,0,2.4485,2.4517,2.4507,2.452,2.452,2.4543,2.4554,2.4524,2.4537,2.4541,2.4565,2.4585,2.4599,2.4639,2.4627,2.4644,2.463,2.4684,2.4632,2.4637,2.4627,2.4624,2.4626,2.4694,2.4695,2.4697,2.4698,0,2.4619,2.4606,2.4622,2.4634,2.4647,2.4656,2.4661,2.4675,2.4644,2.4661,2.4683,2.4694,2.4716,2.4736,2.4748,2.4747,2.4717,2.4714,2.4725,2.4731,2.4735,2.473,2.4571,2.471,2.4709,2.4708,2.4708,2.4707,2.4719,2.4744,2.474,2.4758,2.4759,2.4764,2.4786,2.4775,2.4792,2.4806,2.4789,2.4815,2.4815,2.4829,2.4831,2.4851,2.4829,2.4845,2.4849,2.4852,2.4857,2.4734,2.4854,2.4854,2.4853,2.4853,2.4853,0,2.4848,2.4843,2.486,2.4867,2.4882,2.4851,2.4855,2.4869,2.4892,2.4894,2.4908,2.4932,2.4951,2.4939,2.4955,2.4973,2.496,2.4978,2.4975,2.4975,2.4878,2.4866,2.4988,2.4988,2.4988,2.4988,2.4988,2.4988,2.4917,2.4957,2.4943,2.4982,2.4976,2.5,2.5005,2.5009,2.501,2.5038,2.5052,2.5044,2.504,2.5054,2.5069,2.5066,2.5072,2.5095,2.5086,2.4995,2.4982,2.4969,2.4957,2.5097,2.5097,2.518,2.5181,2.5182]}]]